IRIDIUM 147

Last updated on Fri Sep 11 2026 00:03:06 GMT+0000 (Coordinated Universal Time)

1 43480U 18047E 26253.50483882 .00000027 00000+0 27275-5 0 9991 2 43480 86.3930 52.6342 0002046 88.8440 271.2990 14.34217820434717
UTC large
Height (km)
Speed (km/s)
/
Latitude / Longitude
Inclination (degrees)
Orbital Period (minutes)
Azimuth
Elevation
Range (km)
Doppler Factor

Next 0 passes for location: London (51.5072 / 0.1276)

No passes found over London.
IRIDIUM 147